Overview Statistics Trail Chart Weather Telemetry Raw packets
 

This is the latest recevied weather packets stored in our database for station/object PY5AL-13. If no packets are shown the sender has not sent any weather packets the latest 10 day(s).

<< 1 2 3 4 >>
Time Temp. Humidity Pressure Rain* Wind** Luminosity Snow
1777864467 22.78° C 60% 1023.1 hPa - - - -
1777863289 22.78° C 59% 1023.1 hPa - - - -
1777862067 22.78° C 59% 1023.5 hPa - - - -
1777860867 22.78° C 60% 1023.6 hPa - - - -
1777859668 22.78° C 59% 1023.6 hPa - - - -
1777858468 22.22° C 60% 1023.6 hPa - - - -
1777857268 22.78° C 60% 1023.7 hPa - - - -
1777856068 22.78° C 60% 1023.7 hPa - - - -
1777854868 22.78° C 59% 1023.8 hPa - - - -
1777853669 22.78° C 60% 1023.9 hPa - - - -
1777852468 22.78° C 61% 1023.8 hPa - - - -
1777851268 22.78° C 60% 1023.8 hPa - - - -
1777850068 23.33° C 59% 1023.7 hPa - - - -
1777848868 23.33° C 59% 1023.6 hPa - - - -
1777847668 23.33° C 57% 1023.6 hPa - - - -
1777846468 23.33° C 54% 1023.4 hPa - - - -
1777845268 23.33° C 54% 1023.3 hPa - - - -
1777844068 23.33° C 55% 1023.3 hPa - - - -
1777842868 23.33° C 53% 1023.3 hPa - - - -
1777841668 23.33° C 55% 1023.2 hPa - - - -
1777840468 23.89° C 53% 1023.3 hPa - - - -
1777839268 23.89° C 53% 1023.3 hPa - - - -
1777838068 23.89° C 52% 1023.3 hPa - - - -
1777836868 23.89° C 50% 1023.4 hPa - - - -
1777835668 24.44° C 50% 1023.2 hPa - - - -

* Rain since midnight (hover to see other rain measurements)
** Current wind speed in m/s (hover to see current wind gust speed)